Location: Santa Giusta
(39.8800°N, 8.6069°E)
Time: 16:35:28
(UTC+00:00)

Cosmos 1892 Rocket - Pass Details

Date: 02 February 2023
Orbit: 605 x 631 km, 82.5° (Epoch: 01 April)

Event Time Altitude Azimuth Distance (km) Brightness Sun altitude
Rises 18:22:19 0° 193° (SSW) 2,898 7.3 -18.8°
Reaches altitude 10° 18:24:33 10° 196° (SSW) 1,993 6.4 -19.2°
Maximum altitude 18:28:57 67° 279° (W) 679 3.9 -20.0°
Drops below altitude 10° 18:33:20 10° 2° (N) 1,992 6.1 -20.9°
Sets 18:35:35 0° 5° (N) 2,898 6.9 -21.3°
